BEESAT-6

Last updated on Mon Jul 15 2024 00:03:38 GMT+0000 (Coordinated Universal Time)

1 47957U 21022AB 24195.71643252 .07877496 25124-5 21409-2 0 9995 2 47957 97.4034 106.4772 0010345 199.6209 160.4687 16.28028729183275

Satellite not in orbit